Location: Joncqui�res
(44.1143°N, 4.9000°E)
Time: 16:14:11
(UTC+00:00)

Daily predictions for brighter satellites

Satellite Brightness Start Highest point End
(mag) Time Altitude Azimuth Time Altitude Azimuth Time Altitude Azimuth
Tsikada Rocket 4.3 16:55:39 10° SSW 17:01:59 76° W 17:08:16 10° N
NOAA 12 4.1 16:57:24 10° SSE 17:02:38 83° ENE 17:07:54 10° NNW
RESURS DK-1 3.2 17:01:24 10° SW 17:05:25 51° WNW 17:09:28 10° NNE
MOS 1 Rocket 4.4 17:05:19 10° NE 17:08:35 21° E 17:11:49 10° SE
ATLAS 3B R/B 3.2 17:01:55 10° NW 17:08:53 72° WSW 17:16:06 10° SSE
Cosmos 2228 3.1 17:05:12 10° N 17:09:23 54° ENE 17:13:35 10° SSE
Cosmos 1400 Rocket 4.4 17:05:45 10° NNW 17:09:38 41° W 17:13:26 10° SSW
BREEZE-M DEB (TANK) 3.4 17:07:12 10° W 17:10:01 36° SSW 17:13:04 10° SE
Cosmos 2142 Rocket 4.5 17:05:24 10° N 17:11:32 62° E 17:17:34 10° SSE
Meteor 2-5 Rocket 3.7 17:07:09 10° S 17:12:44 81° E 17:18:17 10° NNE
CZ-4C R/B 3.5 17:09:01 10° WSW 17:13:38 33° NW 17:19:07 10° NNE
SKYMED 2 4.3 17:10:44 10° NNE 17:14:39 32° E 17:18:33 10° SSE
SJ 16-02 2.8 17:12:47 10° SE 17:15:44 18° E 17:18:41 10° NE
CZ-3B R/B 3.1 17:14:57 10° NNW 17:16:49 18° NNE 17:20:06 10° ENE
Cosmos 1777 Rocket 4.2 17:13:43 10° S 17:18:47 52° ESE 17:23:54 10° NNE
CORIOLIS 4.3 17:13:58 10° SSE 17:19:22 85° WSW 17:24:48 10° NNW
Cosmos 2263 Rocket 2.6 17:15:01 10° SW 17:20:40 67° WNW 17:26:20 10° NNE
NOAA 11 4.3 17:19:20 10° SSE 17:24:50 85° WSW 17:30:23 10° NNW
Cosmos 1455 3.5 17:23:56 10° NNE 17:26:44 19° ENE 17:29:31 10° ESE
Cosmos 2058 Rocket 3.6 17:24:34 10° N 17:28:49 39° ENE 17:33:02 10° SE
Cosmos 1300 2.9 17:27:17 10° NNW 17:31:06 73° W 17:34:53 10° S
X-37B 2.1 17:28:30 10° SSW 17:31:11 25° SSE 17:33:14 14° E
ARGOS 4.1 17:32:58 10° ESE 17:37:08 24° ENE 17:41:19 10° NNE
Okean 1-7 Rocket 4.0 17:35:41 10° SSE 17:39:58 44° E 17:44:19 10° NNE
CREW DRAGON DEMO-1 DEB 4.3 17:38:35 10° NW 17:40:56 22° NNE 17:41:52 19° NE
Lacrosse 5 2.4 17:36:35 10° NW 17:41:21 40° NNE 17:45:00 16° E
ISS -3.0 17:40:10 10° SSW 17:43:19 38° SE 17:45:00 22° E
Cosmos 1943 4.1 17:38:15 10° NW 17:43:46 53° WSW 17:49:13 10° S
Cosmos 1939 Rocket 2.9 17:39:53 10° SSE 17:44:01 87° WSW 17:48:08 10° NNW
Cosmos 1726 Rocket 3.5 17:40:01 10° N 17:44:24 89° WSW 17:48:48 10° S
ERS-2 2.6 17:42:03 11° NNE 17:45:20 38° E 17:48:44 10° S
Meteor 1-24 Rocket 4.0 17:41:34 10° SSW 17:46:54 66° WNW 17:52:11 10° N
CZ-2C R/B 4.0 17:45:49 17° ENE 17:46:58 19° E 17:50:47 10° SE
EXPRESS MD2 4.2 17:38:16 10° WNW 17:46:59 76° NNE 17:50:21 17° ESE
COSMOS 2455 2.8 17:42:00 10° SSW 17:48:00 77° ESE 17:54:03 10° NNE
Cosmos 1626 Rocket 4.3 17:47:28 10° SSE 17:51:16 30° E 17:54:01 16° NE
Cosmos 1844 4.1 17:47:50 10° S 17:53:04 41° ESE 17:57:10 16° NE
IRS-1C Rocket 4.0 17:49:37 10° SSE 17:54:50 70° ENE 18:00:05 10° N
Cosmos 1833 Rocket 4.4 17:52:00 10° N 17:54:41 14° NE 17:54:41 14° NE
CZ-4 R/B 1.5 17:52:22 10° SSE 17:56:21 49° ENE 18:00:16 10° N
Feng Yun 1-1 Rocket 4.2 17:52:07 10° SSE 17:57:32 85° WSW 18:03:05 10° NNW
COSMO-SKYMED 1 2.7 17:58:30 10° N 18:02:52 78° WNW 18:07:12 10° SSW
USA 267 4.2 18:04:12 22° E 18:06:57 29° SE 18:12:29 10° S
Okean-O 2.5 18:08:04 10° SSE 18:12:27 68° ENE 18:16:52 10° N
CZ-4B R/B 2.7 18:09:45 10° N 18:12:57 39° WNW 18:16:04 10° SW
CZ-2C R/B 3.3 18:08:41 10° S 18:13:56 78° WSW 18:19:30 10° NNW
Cosmos 1844 Rocket 2.6 18:09:20 10° SSW 18:15:00 76° ESE 18:19:24 17° NNE
Okean O Rocket 4.1 18:11:59 10° SSW 18:15:35 24° W 18:19:13 10° NW
H-2A R/B 1.9 18:11:29 10° SSE 18:16:24 67° ENE 18:21:28 10° N
OE (NEXTSAT) 4.3 18:13:47 10° W 18:17:13 72° N 18:17:46 57° NE
Cosmos 923 Rocket 4.1 18:12:13 10° NNW 18:17:29 55° ENE 18:22:40 10° SE
Meteor 1-21 Rocket 4.1 18:12:14 10° S 18:17:42 66° E 18:23:12 10° NNE
Aureole 2 Rocket 2.5 18:15:29 10° SSW 18:18:26 60° WNW 18:19:28 35° N
Cosmos 1689 Rocket 1.9 18:20:00 71° S 18:20:00 71° S 18:22:35 10° S
Cosmos 158 Rocket 3.9 18:17:34 10° NNW 18:22:54 67° ENE 18:28:15 10° SSE
Cosmos 1898 Rocket 4.0 18:18:36 10° SSE 18:23:25 37° ESE 18:23:42 37° E
Cosmos 1680 Rocket 3.7 18:19:46 10° N 18:24:51 48° ENE 18:26:36 35° ESE
Cosmos 1602 Rocket 3.5 18:27:00 10° S 18:31:14 58° E 18:31:34 56° ENE
Cosmos 1818 3.6 18:26:35 10° SW 18:32:00 82° NW 18:34:52 29° NNE
SAR-Lupe-4 3.8 18:31:28 29° N 18:33:08 66° WNW 18:36:40 10° SSW
YAOGAN 1 2.7 18:30:06 10° S 18:34:25 74° WSW 18:38:46 10° NNW
Cosmos 489 Rocket 4.5 18:30:14 10° NNW 18:36:38 85° WSW 18:42:58 10° SSE
CSL-04 Rocket 3.5 18:32:53 10° SSE 18:38:14 71° ENE 18:43:42 10° N
Helios 1A Rocket 2.9 18:35:12 10° SSE 18:39:19 81° WSW 18:43:30 10° NNW
USA 234 3.9 18:40:19 33° NE 18:41:53 38° NNE 18:47:48 10° NW
Cosmos 1092 Rocket 3.8 18:38:30 10° S 18:44:42 85° E 18:50:54 10° N
ATLAS 5 CENTAUR R/B 4.0 18:42:53 10° WNW 18:45:29 15° NNW 18:47:38 12° N
Iridium 4 Rocket 3.5 18:41:45 10° N 18:47:29 77° E 18:52:43 10° S
Cosmos 1812 Rocket 4.3 18:46:03 10° N 18:48:54 39° N 18:48:54 39° N
SJ 16-02 2.3 18:49:42 10° SW 18:53:55 45° WNW 18:55:59 26° N
Cosmos 2344 4.4 18:45:18 10° NW 18:54:23 59° NE 18:59:35 36° ESE
Cosmos 1937 Rocket 4.3 18:53:25 10° S 18:56:46 37° SSE 18:56:46 37° SSE
Cosmos 1455 4.1 18:59:01 10° NNW 19:02:22 30° W 19:05:43 10° SSW
Cosmos 2112 Rocket 3.8 18:57:05 10° NNW 19:02:18 85° NE 19:02:18 85° NE
Cosmos 1703 4.4 19:03:47 10° SSW 19:07:03 42° W 19:07:03 42° W
X-37B 3.3 19:04:22 10° WSW 19:05:31 20° WSW 19:05:31 20° WSW
ARGOS 3.9 19:11:51 10° S 19:17:02 51° W 19:22:17 10° NNW
COSMOS 2406 4.3 19:11:31 10° NNW 19:14:49 33° N 19:14:49 33° N
Cosmos 44 3.9 19:15:10 10° SW 19:18:46 51° WSW 19:18:46 51° WSW
ISS -0.9 19:16:55 10° W 19:17:58 18° W 19:17:58 18° W
Lacrosse 5 2.7 19:19:35 10° WNW 19:24:15 47° WSW 19:24:15 47° WSW
CZ-2C R/B 3.0 19:27:19 64° NW 19:27:41 66° WNW 19:33:14 10° SSW
CZ-4 R/B 4.5 19:29:19 10° SW 19:31:37 14° W 19:33:54 10° WNW
NOSS 3-1 (C) 4.0 19:25:55 10° NW 19:33:32 90° WSW 19:34:40 71° SE
Cosmos 1553 Rocket 4.5 19:31:25 10° N 19:36:13 53° NNW 19:36:13 53° NNW
Cosmos 1833 Rocket 4.3 19:34:15 10° NNW 19:36:25 24° NNW 19:36:25 24° NNW
Cosmos 2082 Rocket 4.3 19:36:41 10° NNW 19:37:48 16° N 19:37:48 16° N
USA 267 3.5 19:51:34 63° WSW 19:51:34 63° WSW 19:56:57 10° SW
USA 229 DEB 4.0 19:43:06 10° NW 19:49:18 67° NNW 19:49:18 67° NNW
USA 229 4.0 19:43:12 10° NW 19:49:21 66° NNW 19:49:21 66° NNW
NOSS 3-1 (A) 4.3 19:58:29 10° NW 20:04:26 61° NW 20:04:26 61° NW
